{"data":{"norad_id":63573,"intl_designator":"2025-076E","name":"STARLINK-33683","alt_names":[],"object_type":"PAYLOAD","status":"ACTIVE","operator":null,"country":"US","launch_date":"2025-04-14","launch_site_code":"AFETR","launch_vehicle":null,"mission":null,"orbit_class":"UNKNOWN","rcs_meters":null,"size_class":null,"mass_kg":null,"dimensions":null,"purposes":["comms"],"wikipedia_slug":null,"has_3d_model":false,"image_url":null,"decayed_at":null,"tle_current":{"epoch":"2026-09-20T03:05:32.586432Z","epoch_age_seconds":184636,"freshness":"STALE","line1":"1 63573U 25076E   26263.12884938  .00017252  00000+0  63479-3 0  9994","line2":"2 63573  42.9995 303.9306 0001527 283.2640  76.8041 15.27588633 81562","mean_motion":15.27588633,"eccentricity":0.0001527,"inclination_deg":42.9995,"raan_deg":303.9306,"arg_perigee_deg":283.264,"mean_anomaly_deg":76.8041,"bstar":0.00063479,"rev_number":8156,"period_min":94.266215975437,"perigee_km":481.97554668415,"apogee_km":484.07094502323,"semimajor_km":6861.1602458537,"source":"CELESTRAK","updated_at":"2026-09-21T09:00:35.045443Z"}}}